Regional Weather Roundup
Issued by NWS

Home | Current Version | Previous Version | Graphics & Text | Print | Product List | Glossary On
Versions: 1 2 3 4 5 6 7 8 9 10 11 12 13 14 15 16 17 18 19 20 21 22 23 24 25 26 27 28 29 30 31 32 33 34 35 36 37 38 39 40 41 42 43 44 45 46 47 48 49 50
000
ASUS43 KBIS 201010
RWRND

NORTH DAKOTA REGIONAL WEATHER ROUNDUP
NATIONAL WEATHER SERVICE BISMARCK ND
400 AM CST TUE FEB 20 2018

NOTE: "FAIR" INDICATES FEW OR NO CLOUDS BELOW 12,000 FEET WITH NO
SIGNIFICANT WEATHER AND/OR OBSTRUCTIONS TO VISIBILITY.


NDZ001>003-009>011-017-201100-
NORTHWEST NORTH DAKOTA

CITY           SKY/WX    TMP DP  RH WIND       PRES   REMARKS
WILLISTON      CLOUDY     2  -4  76 W12       30.10F WCI -15
MINOT          LGT SNOW   4  -1  80 W5        30.10F WCI  -5
MINOT AFB      LGT SNOW   4  -1  81 W5        30.11S WCI  -6
$$

NDZ018>021-031>035-040>046-201100-
SOUTHWEST NORTH DAKOTA

CITY           SKY/WX    TMP DP  RH WIND       PRES   REMARKS
BISMARCK       LGT SNOW   4   0  83 N7        30.09F FOG     WCI  -8
DICKINSON      LGT SNOW   0  -4  83 W7        30.02F FOG     WCI -13
GARRISON         N/A      2  -2  83 NW8       30.07F WCI -12
HETTINGER ARPT LGT SNOW   0  -5  79 NW8       30.04R WCI -14
$$

NDZ004>008-012>016-024-026-027-054-201100-
NORTHEAST NORTH DAKOTA

CITY           SKY/WX    TMP DP  RH WIND       PRES   REMARKS
GRAND FORKS    LGT SNOW   5   1  83 N12       30.10F FOG     WCI -11
GRND FRKS AFB  CLOUDY     4  -1  79 N12       30.11S WCI -12
DEVILS LAKE    FLURRIES   3  -2  79 NW9       30.13R WCI -12
$$

NDZ022-023-025-028>030-036>039-047>053-201100-
SOUTHEAST NORTH DAKOTA

CITY           SKY/WX    TMP DP  RH WIND       PRES   REMARKS
FARGO          LGT SNOW   6   2  83 N20       30.05R FOG     WCI -14
JAMESTOWN      CLOUDY     3  -1  83 N15       30.06R WCI -16
$$




USA.gov is the U.S. government's official web portal to all federal, state and local government web resources and services.